User: anonymous   Login
Location: *
(40.7873°S, 98.7174°E)
Time: 07:26:09
(UTC+00:00)
Language:

NOSS 3-4 (A) - Orbit

View from above orbital plane
View from above orbital plane
View from above satellite
View from above satellite

Ground track
Ground track

The orbit data is extracted from the following two-line orbital elements,

1 31701U 07027A   22227.10278078 0.00000000  00000-0  00000-0 0    09
2 31701  63.4085 313.1161 0360346  19.0815 340.8636 13.40834163    05
Epoch (UTC): 15 August 2022 02:28:00
Eccentricity: 0.0360346
inclination: 63.4085°
perigee height: 836 km
apogee height: 1376 km
right ascension of ascending node: 313.1161°
argument of perigee: 19.0815°
revolutions per day: 13.40834163
mean anomaly at epoch: 340.8636°
orbit number at epoch: 0

The dashed part of the orbit path shows where the satellite is in the earth's shadow,  

DLR